Location: Nashville
(36.1660°N, 86.7840°W)
Time: 19:33:50
(UTC-05:00)

SO-50 - Pass Details

Date: 25 May 2022
Orbit: 586 x 697 km, 64.6° (Epoch: 29 June)

Event Time Altitude Azimuth Distance (km) Brightness Sun altitude
Rises 20:17:57 0° 323° (NW) 3,079 ? -5.0°
Reaches altitude 10° 20:20:23 10° 317° (NW) 2,159 ? -5.4°
Maximum altitude 20:25:03 44° 246° (WSW) 955 ? -6.2°
Drops below altitude 10° 20:29:39 10° 174° (S) 2,121 ? -7.0°
Sets 20:32:02 0° 168° (SSE) 3,019 ? -7.4°
